NOAA 16 DEB, 41525

Orbit data source: Space-Track

NOAA 16 DEB, 41525 is space debris in SSO originally from a launch on Thu, 21 Sep 2000 UTC launched from the Air Force Western Test Range (AFWTR). Debris objects in space refer to the collection of defunct objects orbiting the Earth. Examples of debris include non-operational satellites, rocket bodies, and fragments generated from explosions, collisions, or faulty payload assembly.

Loading next visibility...
Identifier
41525, 2000-055MZ
Orbit
SSO
Country
Flag of USUS
Related business
Manufacturer
Unknown
Mission
Spacecraft
Bus & Motor
Unknown
Mass
Unknown
Launch date (UTC)
2000-09-21 (25 years ago)
Launch vehicle
Unknown
Launch site
Air Force Western Test Range (AFWTR)
Object type
Payload
Rocket body
Debris
Shape & HBR
Unknown shape, 0.1 m
Radar Cross Section
Small (<0.1 m²)

Expand to show TLE details & history
Last TLE update: 1 day ago

TLE from 1 day ago
0 NOAA 16 DEB
1 41525U 00055MZ  26033.04273090  .00003516  00000-0  13889-2 0  9992
2 41525  98.6618 105.2752 0013325 196.1307 163.9452 14.29607917510316
Epoch: 2026-02-02T01:01Z
TLE epoch observation values (Epoch: 2026-02-02T01:01:31.949Z)
Latitude
-0.00008°
Longitude
-42.3516°
Altitude
805.157 km
Speed
7.446 km/s
True Right ascension
07h 01m 06s
True Declination
0° 00' 00"
Sunlit
Object was in full shadow at epoch
Visualization orbit readout
Latitude
Unknown
Longitude
Unknown
Altitude
Unknown
Speed
Unknown
Apparent Right ascension
Unknown
Apparent Declination
Unknown
Sunlit
N/A
Visualization observer readout
Local Sidereal Time
13:43:43
Azimuth
Unknown
Elevation
Unknown
Doppler factor
Unknown
Orbital elements
Apogee altitude
799.737 km
Perigee altitude
780.633 km
Semi-major axis
7,168.322 km
Eccentricity
0.00133
Inclination
98.6618°
RAAN
105.2752°
Arg. of periapsis
196.1307°
True anomaly
163.98736°
Mean anomaly
163.9452°
Eccentric anomaly
163.96629°
Mean motion
3.57616 °/min
Orbital period
100.67 mins
BSTAR
0.0013889
Loading maneuver chart data...
Computing Atmospheric mass density...
Loading historical data...
Loading historical data...
Loading historical data...
Loading historical data...
Loading historical data...
Loading historical data...
Loading historical data...

Documentation

Showing up to 5 results
|